• In Belarus
  • List of Countries
  • For 7 days
  • Water Temperature
  • Weather Map
  • Weather Widgets
  • user-avatar
    Login

    Hourly Weather Almaty

    Today, 26 January, Sunday

    Time Temperature Precipitation Wind Pressure Humidity
    00:00 0°C° 0 mm 1 mps 687 mmHg 82%
    01:00 0°C° 0 mm 1 mps 687 mmHg 81%
    02:00 0°C° 0 mm 1 mps 688 mmHg 80%
    03:00 -2°C° 0.3 mm 2 mps 688 mmHg 84%
    04:00 -2°C° 0.3 mm 2 mps 688 mmHg 88%
    05:00 -3°C° 0.3 mm 2 mps 689 mmHg 91%
    06:00 -3°C° 0.3 mm 2 mps 689 mmHg 92%
    07:00 -1°C° 0.3 mm 1 mps 689 mmHg 92%
    08:00 -1°C° 0.3 mm 1 mps 690 mmHg 92%
    09:00 -1°C° 0 mm 1 mps 690 mmHg 92%
    10:00 0°C° 0 mm 1 mps 689 mmHg 92%
    11:00 0°C° 0 mm 1 mps 689 mmHg 91%
    12:00 0°C° 0.1 mm 1 mps 689 mmHg 91%
    13:00 0°C° 0.1 mm 1 mps 688 mmHg 91%
    14:00 +1°C° 0.1 mm 1 mps 688 mmHg 91%
    15:00 0°C° 0 mm 1 mps 688 mmHg 91%
    16:00 -1°C° 0 mm 1 mps 688 mmHg 90%
    17:00 -2°C° 0 mm 1 mps 688 mmHg 90%
    18:00 -2°C° 0 mm 1 mps 688 mmHg 87%
    19:00 -2°C° 0 mm 1 mps 689 mmHg 84%
    20:00 -3°C° 0 mm 1 mps 689 mmHg 80%
    21:00 -3°C° 0 mm 1 mps 689 mmHg 80%
    22:00 -5°C° 0 mm 2 mps 689 mmHg 80%
    23:00 -5°C° 0 mm 2 mps 688 mmHg 80%

    Tomorrow, 27 January, Monday

    Time Temperature Precipitation Wind Pressure Humidity
    00:00 -5°C° 0 mm 2 mps 688 mmHg 79%
    01:00 -5°C° 0 mm 2 mps 688 mmHg 78%
    02:00 -5°C° 0 mm 2 mps 688 mmHg 76%
    03:00 -5°C° 0 mm 2 mps 688 mmHg 75%
    04:00 -5°C° 0 mm 2 mps 688 mmHg 74%
    05:00 -5°C° 0 mm 2 mps 688 mmHg 73%
    06:00 -5°C° 0 mm 2 mps 687 mmHg 74%
    07:00 -5°C° 0 mm 2 mps 687 mmHg 74%
    08:00 -5°C° 0 mm 2 mps 687 mmHg 75%
    09:00 -4°C° 0 mm 2 mps 687 mmHg 76%
    10:00 -1°C° 0 mm 1 mps 687 mmHg 77%
    11:00 +1°C° 0 mm 1 mps 686 mmHg 79%
    12:00 +1°C° 0 mm 1 mps 686 mmHg 80%
    13:00 +1°C° 0 mm 1 mps 686 mmHg 81%
    14:00 +1°C° 0 mm 1 mps 685 mmHg 82%
    15:00 0°C° 0 mm 1 mps 685 mmHg 81%
    16:00 -1°C° 0 mm 1 mps 686 mmHg 80%
    17:00 -4°C° 0 mm 2 mps 686 mmHg 79%
    18:00 -4°C° 0 mm 2 mps 687 mmHg 78%
    19:00 -5°C° 0 mm 2 mps 687 mmHg 77%
    20:00 -5°C° 0 mm 2 mps 688 mmHg 76%
    21:00 -5°C° 0.1 mm 2 mps 689 mmHg 79%
    22:00 -5°C° 0.1 mm 2 mps 689 mmHg 83%
    23:00 -5°C° 0.1 mm 2 mps 690 mmHg 87%

    Day after tomorrow, 28 January, Tuesday

    Time Temperature Precipitation Wind Pressure Humidity
    00:00 -5°C° 0.1 mm 2 mps 690 mmHg 88%
    01:00 -5°C° 0.1 mm 2 mps 691 mmHg 88%
    02:00 -6°C° 0.1 mm 3 mps 691 mmHg 89%
    03:00 -6°C° 0.1 mm 3 mps 692 mmHg 86%
    04:00 -6°C° 0.1 mm 3 mps 692 mmHg 82%
    05:00 -6°C° 0.1 mm 3 mps 692 mmHg 79%
    06:00 -5°C° 0 mm 2 mps 692 mmHg 77%
    07:00 -5°C° 0 mm 2 mps 692 mmHg 75%
    08:00 -5°C° 0 mm 2 mps 692 mmHg 73%
    09:00 -4°C° 0 mm 2 mps 692 mmHg 74%
    10:00 -3°C° 0 mm 2 mps 692 mmHg 75%
    11:00 +1°C° 0 mm 1 mps 692 mmHg 77%
    12:00 -1°C° 0 mm 2 mps 692 mmHg 78%
    13:00 -1°C° 0 mm 2 mps 692 mmHg 79%
    14:00 -1°C° 0 mm 2 mps 691 mmHg 81%
    15:00 -3°C° 0 mm 2 mps 691 mmHg 81%
    16:00 -4°C° 0 mm 2 mps 692 mmHg 80%
    17:00 -6°C° 0 mm 2 mps 692 mmHg 80%
    18:00 -6°C° 0 mm 2 mps 692 mmHg 78%
    19:00 -6°C° 0 mm 2 mps 693 mmHg 75%
    20:00 -7°C° 0 mm 2 mps 693 mmHg 73%
    21:00 -7°C° 0 mm 2 mps 694 mmHg 71%
    22:00 -7°C° 0 mm 2 mps 694 mmHg 68%
    23:00 -7°C° 0 mm 2 mps 694 mmHg 66%

    29 January, Wednesday

    Time Temperature Precipitation Wind Pressure Humidity
    00:00 -7°C° 0 mm 2 mps 694 mmHg 63%
    01:00 -7°C° 0 mm 2 mps 694 mmHg 61%
    02:00 -7°C° 0 mm 2 mps 694 mmHg 58%
    03:00 -6°C° 0 mm 1 mps 694 mmHg 59%
    04:00 -6°C° 0 mm 1 mps 694 mmHg 59%
    05:00 -7°C° 0 mm 1 mps 695 mmHg 60%
    06:00 -6°C° 0 mm 1 mps 695 mmHg 61%
    07:00 -6°C° 0 mm 1 mps 695 mmHg 62%
    08:00 -6°C° 0 mm 1 mps 695 mmHg 63%
    09:00 -3°C° 0 mm 1 mps 694 mmHg 67%
    10:00 -2°C° 0 mm 1 mps 694 mmHg 71%
    11:00 0°C° 0 mm 1 mps 694 mmHg 74%
    12:00 0°C° 0 mm 1 mps 693 mmHg 78%
    13:00 -2°C° 0 mm 2 mps 693 mmHg 82%
    14:00 -2°C° 0 mm 2 mps 693 mmHg 86%
    15:00 -1°C° 0 mm 1 mps 692 mmHg 87%
    16:00 -3°C° 0 mm 1 mps 692 mmHg 88%
    17:00 -4°C° 0 mm 1 mps 692 mmHg 89%
    18:00 -4°C° 0 mm 1 mps 692 mmHg 84%
    19:00 -6°C° 0 mm 1 mps 692 mmHg 79%
    20:00 -6°C° 0 mm 1 mps 693 mmHg 75%
    21:00 -6°C° 0 mm 1 mps 693 mmHg 74%
    22:00 -7°C° 0 mm 1 mps 692 mmHg 72%
    23:00 -7°C° 0 mm 1 mps 692 mmHg 71%

    30 January, Thursday

    Time Temperature Precipitation Wind Pressure Humidity
    00:00 -7°C° 0 mm 1 mps 692 mmHg 71%
    01:00 -7°C° 0 mm 1 mps 692 mmHg 71%
    02:00 -7°C° 0 mm 1 mps 692 mmHg 70%
    03:00 -7°C° 0 mm 1 mps 692 mmHg 70%
    04:00 -7°C° 0 mm 1 mps 692 mmHg 71%
    05:00 -7°C° 0 mm 1 mps 692 mmHg 71%
    06:00 -7°C° 0 mm 1 mps 692 mmHg 72%
    07:00 -7°C° 0 mm 1 mps 692 mmHg 72%
    08:00 -7°C° 0 mm 1 mps 692 mmHg 73%
    09:00 -4°C° 0 mm 1 mps 692 mmHg 74%
    10:00 -3°C° 0 mm 1 mps 692 mmHg 76%
    11:00 -2°C° 0 mm 1 mps 692 mmHg 77%
    12:00 -2°C° 0 mm 1 mps 692 mmHg 79%
    13:00 -2°C° 0 mm 1 mps 691 mmHg 81%
    14:00 -1°C° 0 mm 1 mps 691 mmHg 83%
    15:00 -2°C° 0 mm 1 mps 691 mmHg 84%
    16:00 -3°C° 0 mm 1 mps 691 mmHg 85%
    17:00 -5°C° 0 mm 0 mps 691 mmHg 87%
    18:00 -4°C° 0 mm 1 mps 691 mmHg 85%
    19:00 -6°C° 0 mm 1 mps 692 mmHg 83%
    20:00 -6°C° 0 mm 1 mps 692 mmHg 81%
    21:00 -6°C° 0 mm 1 mps 692 mmHg 81%
    22:00 -7°C° 0 mm 1 mps 692 mmHg 80%
    23:00 -7°C° 0 mm 1 mps 692 mmHg 79%

    31 January, Friday

    Time Temperature Precipitation Wind Pressure Humidity
    00:00 -7°C° 0 mm 1 mps 692 mmHg 78%
    01:00 -7°C° 0 mm 1 mps 692 mmHg 77%
    02:00 -7°C° 0 mm 1 mps 692 mmHg 76%
    03:00 -7°C° 0 mm 1 mps 692 mmHg 75%
    04:00 -7°C° 0 mm 1 mps 692 mmHg 74%
    05:00 -7°C° 0 mm 1 mps 692 mmHg 73%
    06:00 -7°C° 0 mm 1 mps 692 mmHg 73%
    07:00 -7°C° 0 mm 1 mps 692 mmHg 72%
    08:00 -7°C° 0 mm 1 mps 693 mmHg 71%
    09:00 -4°C° 0 mm 1 mps 692 mmHg 72%
    10:00 -3°C° 0 mm 1 mps 692 mmHg 73%
    11:00 -2°C° 0 mm 1 mps 692 mmHg 74%
    12:00 -1°C° 0 mm 1 mps 692 mmHg 74%
    13:00 -1°C° 0 mm 1 mps 692 mmHg 75%
    14:00 -1°C° 0 mm 1 mps 692 mmHg 76%
    15:00 -2°C° 0 mm 1 mps 692 mmHg 75%
    16:00 -3°C° 0 mm 1 mps 692 mmHg 73%
    17:00 -6°C° 0 mm 1 mps 692 mmHg 72%
    18:00 -6°C° 0 mm 1 mps 692 mmHg 68%
    19:00 -6°C° 0 mm 1 mps 692 mmHg 64%
    20:00 -6°C° 0 mm 1 mps 692 mmHg 60%
    21:00 -7°C° 0 mm 2 mps 692 mmHg 59%
    22:00 -7°C° 0 mm 2 mps 692 mmHg 58%
    23:00 -7°C° 0 mm 2 mps 692 mmHg 56%
    Show more